sat.trackr.live / text

‹ back to catalog

STARLINK-34455

NORAD 65497 · 2025-198F

PAYLOAD ACTIVE UNKNOWN

§ Identity

Operator
Country
US
Launch date
2025-09-05
Launch site
AFETR
Launch vehicle
Mass (kg)
RCS (m²)

Purposes: comms

External: N2YO · Heavens-Above · Gunter

§ Orbital elements

Epoch: 2026-05-24T18:57:38.277504Z

Period
93.85 min
Inclination
53.1590°
Eccentricity
0.0001246
Mean motion
15.34399853 rev/d
Perigee alt
461.9 km
Apogee alt
463.6 km
Semi-major
6,840.8 km
B*
1.0212e-3
RAAN
276.6535°
Arg perigee
55.3844°
Mean anomaly
304.7276°
Rev number
4,028

§ Raw data

STARLINK-344551 65497U 25198F   26144.79002636  .00034286  00000+0  10212-2 0  99962 65497  53.1590 276.6535 0001246  55.3844 304.7276 15.34399853 40285

JSON: /api/v1/satellites/65497 · /tle

For live sub-satellite position, see the globe view (requires WebGL).

§ Visibility from observer

Set your observer location to see the next 7 days of passes ≥ 10°. The values pass through the URL so the page stays shareable.

No JS? Fill the form by hand. The geolocation button needs JavaScript.